Погода Спас-Деменск

Погода Спас-Деменск : погода сейчас, прогноз погоды и архив. Всё, что Вы хотите узнать о погоде Спас-Деменск!

Поиск расширенной информации на нашем сайте:

Другие новости

Новости СМИ2

Главная страница сайта

Новости сайта

02.10.2013

Напоминаем, что на нашем новом сайте вы можете получить высокодетализированные прогнозы погоды по пунктам России, СНГ и мира (включающие важные для авиации метеовеличины, такие как направление и скорость ветра, видимость, явления погоды, количество и форма облачности, нижняя и верхняя граница облачности), а также ознакомиться с разнообразными материалами по авиационной метеорологии и подборкой полезных ссылок на эту тему.

Сайт Метеоцентр.Азия посвящён разработке технологий оптимизации авиаметеорологического обслуживания, включая проектирование и перспективное создание нескольких автоматизированных авиаметеорологических систем:
- система выпуска высокодетальных прогностических карт явлений погоды для нижнего воздушного пространства по России и ближнему зарубежью;
- система верификации прогнозов TAF (выпускаемых синоптиками официальных АМСГ РФ и ближнего зарубежья) и AUTOTAF (выпускаемых сайтом Метеоцентр.Азия) - выявление ошибок, онлайн-сопоставление с фактической погодой METAR, автоматическое внесение коррективов в прогнозы при резком отклонении фактической погоды от прогноза, подсчёт оправдываемости прогнозов по элементам и в целом;
- система обработки, анализа и отображения авиаметеорологической информации для применения провайдерами метеорологической информации.

Рекомендуем: http://www.dance-1.ru Сальса из свежих овощей

Погода Спас-Деменск - сегодня

Время (UTC), дата Ветер
(°,м/с) 
Видим.   Явления Облачность Т
(°С)
Тd
(°С)
f(%) Тe
(°С)
Pmin
(гПа)
dP
(гПа)
Po
(мм)
O2
(г/м3)
Тmin Tmax R s Состояние
почвы
00 24.03.17 тихо ()   15000 м    ясно 
-1.8 -2.8 93 -2  1025.5  -0.5  746  303           
03 24.03.17 тихо ()   15000 м    8/8 600 м 
[Sc]
-1.9 -2.7 94 -2  1023.7  -1.8  745  303  -2.2         
06 24.03.17 тихо ()   15000 м    8/8 600 м 
[Sc]
+0.6 -2.1 82 +1  1022  -1.8  744  299  -2.2        замёрзшая 
09 24.03.17 210 (ЮЗ) 15000 м    10/0 2000 м средняя 
[Ac As]
+6.3 -2.7 52 +7  1018.7  -2.5  742  293           
12 24.03.17 200 (Ю) 15000 м    10/0 2000 м средняя 
[Ac und]
+6.6 -1.1 58 +6  1016.4  -2.2  741  291           
15 24.03.17 350 (С) 3{10}  15000 м  в посл. час ливневой дождь  10/4 300 м кучево-дожд., средняя 
[Cb cap|Ac und]
+3.2 +0.2 81 +2  1016.6  -0.2  740  295    +7.4  0.3     
18 24.03.17 290 (З) 10 км  {ливн. осадки}  4/4 600 м 
[Sc]
+0.6 -0.3 94 1017.9  741  298    +7.4  0.3     
21 24.03.17 310 (СЗ) 15000 м    8/0 2000 м средняя 
[Ac trans]
+0.5 -3.9 72 1018.8  0.8  742  299           
00 25.03.17 310 (СЗ) 10 км    ясно 
-1.9 -5.3 78 -3  1019.5  0.4  742  302           
03 25.03.17 300 (СЗ) 10 км    ясно 
-3.1 -8.3 67 -4  1020.4  0.7  743  304  -3.1        замёрзшая 
06 25.03.17 310 (СЗ) 15000 м    ясно 
-1.3 -8.5 58 -3  1020.3  0.1  743  302  -3.5        замёрзшая 
09 25.03.17 300 (СЗ) 15000 м    4/0 2000 м средняя 
[Ac trans]
+2.4 -10.7 37 +1  1018.9  0.2  742  297           
12 25.03.17 290 (З) 15000 м    4/0 2000 м средняя 
[Ac trans]
+4.7 -11.3 30 +4  1016.3  -2.2  740  294           
15 25.03.17 280 (З) 15000 м    6/3 600 м верхняя 
[Sc|Ci fib]
+3.5 -10.1 36 +3  1015.1  -1.3  739  295    +5.4       
18 25.03.17 270 (З) 10 км    6/4 600 м верхняя 
[Sc|Ci sp]
-1.9 -7 68 -1  1015.8  0.2  739  301    +5.4       
21 25.03.17 тихо ()   10 км    4/0 верхняя 
[Ci sp]
-4.2 -6.2 86 -4  1016.5  0.4  740  303           
00 26.03.17 340 (С) 10 км    ясно 
-5.4 -6.7 91 -5  1017.2  0.6  740  305           
03 26.03.17 360 (С) 10 км    8/8 600 м 
[Sc]
-4.3 -6.2 87 -4  1018.1  0.9  741  304  -5.9        замёрзшая 
06 26.03.17 330 (СЗ) 15000 м    8/8 600 м 
[Sc]
-0.6 -5.3 70 1019  1.3  742  300  -5.9        замёрзшая 
09 26.03.17 020 (С) 15000 м    6/6 600 м 
[Sc]
+4 -14.3 25 +5  1018.6  0.1  742  296           
12 26.03.17 300 (СЗ) 15000 м    6/6 600 м 
[Sc]
+4.9 -11.8 29 +4  1017.2  -1.3  741  294           
15 26.03.17 250 (З) 15000 м    10/4 600 м средняя 
[Sc|As op]
+4.1 -9.5 36 +3  1014.8  -2.4  739  294    +6       
18 26.03.17 250 (З) 10 км    10/10 630 м 
[Sc]
+2.8 -4.8 57 +1  1012.3  -2.5  737  295    +6       
21 26.03.17 240 (ЮЗ) 4{12}  12000 м  слаб. дождь со снегом  10/10 540 м 
[Sc]
+1.1 -0.9 86 -1  1007.5  -4.8  734  294           
00 27.03.17 250 (З) 4{10}  9000 м  слаб. дождь со снегом  10/10 270 м 
[Frnb|Ns]
+0.2 -0.2 97 -2  1001.2  -6.2  729  293           
Время (UTC), дата Ветер
(°,м/с) 
Видим.   Явления Облачность Т
(°С)
Тd
(°С)
f(%) Тe
(°С)
Pmin
(гПа)
dP
(гПа)
Po
(мм)
O2
(г/м3)
Тmin Tmax R s Состояние
почвы

Для получения пояснительной информации подведите курсор к названию столбца.

ПОГОДА Спас-Деменск - архив

Всё, что Вы хотите узнать о погоде Спас-Деменск - удобно и подробно!

Выберите нужную дату (начиная с 1 января 2015* года) и нажмите кнопку "Найти".
Будут отображены архивные сводки погоды по пункту Спас-Деменск, начиная с указанной даты.


Отображать данные в формате CSV (для использования в таблицах Excel)


Внимание! Наш архив погоды предназначен исключительно для личного некоммерческого использования в познавательных целях. Если Вам необходимы официальные справки о состоянии погоды (для производственных, юридических, коммерческих и т.п. целей), обращайтесь в органы Росгидромета.

*Примечание: данная дата относится к архиву по метеостанциям СССР (Россия, СНГ, Балтия).
Архив по метеостанциям Зарубежной Европы и Азии (кроме Китая) хранится 10 дней, по другим регионам земного шара (Китай, Африка, Америка, Австралия, Океания) - 1 день.

Спас-Деменск - район местоположения метеостанции


Название, широта, долгота, высота метеостанции:
Спас-Деменск 54.4°ш. 34°д. 238 м над ур. моря [Российская Федерация]

Дополнительная информация

В oтличие oт бoльшинства пoгoдных сайтoв мы публикуем пoдрoбную метеoинфoрмацию в детальнoм прoфессиoнальнoм фoрмате.

Характеристики температуры и влажнoсти вoздуха измеряются на высoте 2 м в тени вдали oт зданий и деревьев.
Скoрoсть ветра измеряется на высoте 10 м (на урoвне рoста челoвека скoрoсть ветра ниже в 1.5-2 раза). Если метеoстанция нахoдится в гoрoде или в лесу, тo скoрoсть ветра занижена на 2-4 м/с пo сравнению с oткрытым местoм. Скoрoсть ветра над акватoриями крупных рек и oзёр, а также на вершинах хoлмoв на 2-5 м/с выше, чем в oбычных услoвиях.
Атмoсфернoе давление в разных тoчках местнoсти мoжет значительнo oтличаться oт давления на метеoстанции, в зависимoсти oт услoвий рельефа (при пoдъёме на 10 м давление пoнижается примернo на 1 мм рт.ст.).